Location: Feydey
(46.3431°N, 7.0106°E)
Time: 07:10:05
(UTC+00:00)

USA 81 - Pass Details

Date: 20 June 2021
Orbit: 784 x 789 km, 85.0° (Epoch: 12 June)

Event Time Altitude Azimuth Distance (km) Brightness Sun altitude
Rises 19:56:59 0° 355° (N) 3,287 8.1 -4.8°
Reaches altitude 10° 19:59:21 10° 357° (N) 2,354 7.3 -5.1°
Maximum altitude 20:04:39 77° 84° (E) 809 4.1 -5.7°
Drops below altitude 10° 20:09:53 10° 171° (S) 2,336 6.0 -6.4°
Enters shadow 20:12:03 - 172° (S) 3,187 6.7 -6.7°
